[[{"header":{"parameterUnit":"m.s-1","parameterCategory":1,"la1":30.2992,"la2":30.254,"lo1":-89.0895,"lo2":-89.0443,"dy":0.0025,"dx":0.0025,"nx":19,"ny":19,"refTime":"2026-05-17T03:00:00:Z","depth":0,"parameterNumber":2,"parameterNumberName":"U-component_of_WINDS"},"data":[0,0,0,-4.409,-4.4092,-4.4155,-4.4155,-4.4247,-4.4248,0,0,0,0,0,0,0,0,0,0,0,-4.408,-4.4081,-4.409,-4.4092,-4.4155,-4.4155,-4.4246,-4.4248,0,0,0,0,0,0,0,0,0,0,0,-4.408,-4.4081,-4.4082,-4.4092,-4.4155,-4.4155,-4.4246,-4.4194,0,0,0,0,0,0,0,0,0,0,-4.4131,-4.413,-4.4081,-4.4082,-4.4093,-4.4155,-4.4155,-4.4192,-4.4198,-4.4223,0,-4.425,0,-4.4251,-4.4255,-4.4255,0,0,0,-4.4085,-4.4126,-4.4135,-4.4082,-4.4094,-4.4155,-4.4125,-4.4195,-4.4202,-4.4231,-4.4252,-4.4255,-4.4252,-4.4255,-4.4256,-4.4432,-4.4433,0,0,-4.4082,-4.4096,-4.4131,-4.414,-4.4133,-4.4123,-4.4127,-4.4199,-4.4221,-4.4252,-4.4256,-4.4254,-4.4256,-4.4257,-4.443,-4.4432,0,0,0,-4.4076,-4.4093,-4.4101,-4.4137,-4.4147,-4.4125,-4.4129,-4.4217,-4.4219,-4.4257,-4.4255,-4.4257,-4.4258,-4.4429,-4.4431,-4.45,0,0,0,-4.4074,-4.409,-4.41,-4.4109,-4.4146,-4.4184,-4.4147,-4.4214,-4.4222,-4.4254,-4.4257,-4.4259,-4.4428,-4.443,-4.4495,-4.4529,0,0,0,-4.4073,-4.409,-4.4102,-4.411,-4.4138,-4.4182,-4.4188,-4.4215,-4.4221,-4.4255,-4.4259,-4.4427,-4.443,-4.4491,-4.4522,-4.4577,0,0,0,-4.4076,-4.4163,-4.4104,-4.42,-4.4137,-4.4226,-4.4187,-4.4252,-4.429,-4.4257,-4.4428,-4.4431,-4.449,-4.4518,-4.4573,-4.4624,-4.4648,0,0,-4.4193,-4.4178,-4.4233,-4.4182,-4.4285,-4.4215,-4.4328,-4.4349,-4.4339,-4.4401,-4.4405,-4.4497,-4.4522,-4.4576,-4.4781,-4.48,0,0,0,-4.4275,-4.4315,-4.4339,-4.4377,-4.4397,-4.4415,-4.4418,-4.4426,-4.4478,-4.4374,-4.4533,-4.4547,-4.4579,-4.4602,-4.4618,-4.4643,-4.4443,-4.4443,-4.4443,-4.4458,-4.4443,-4.4533,-4.4525,-4.4562,-4.4565,-4.4592,-4.4603,-4.4575,-4.4613,-4.463,-4.4757,-4.4785,-4.4797,-4.4823,-4.4659,-4.4659,-4.4659,-4.466,-4.4626,-4.4679,-4.4642,-4.4716,-4.4698,-4.4759,-4.4766,-4.4744,-4.4797,-4.4742,-4.4769,-4.4708,-4.4818,-4.484,-4.4665,-4.4664,-4.4663,-4.4663,-4.4662,-4.4741,-4.4764,-4.4774,-4.4827,-4.4869,-4.4858,-4.4911,-4.4893,-4.4877,-4.4904,-4.4918,-4.4917,-4.4911,-4.4913,-4.4913,-4.4914,-4.4914,-4.4915,-4.4915,-4.4855,-4.4865,-4.4912,-4.4942,-4.4963,-4.499,-4.4995,-4.5015,-4.5032,-4.5015,-4.5015,-4.4981,-4.4834,-4.4794,-4.4921,-4.492,-4.4919,-4.4919,-4.4918,-4.5025,-4.4984,-4.5058,-4.508,-4.5112,-4.5154,-4.5133,-4.5176,-4.519,-4.5216,-4.5179,-4.5074,-4.5055,-4.5042,-4.5009,-4.5184,-4.5184,-4.5184,-4.5184,-4.5119,-4.511,-4.5181,-4.5217,-4.5251,-4.5239,-4.532,-4.5325,-4.5323,-4.533,-4.5303,-4.526,-4.5248,-4.5236,-4.5219,-4.5188,-4.5404,-4.5404,-4.5405,-4.5221,-4.5215,-4.5287,-4.5287,-4.5312,-4.5332,-4.5407,-4.5448,-4.5438,-4.5413,-4.5335,-4.5325,-4.5255,-4.5234,-4.5203,-4.5177,-4.512,0,0]},{"header":{"parameterUnit":"m.s-1","parameterCategory":1,"la1":30.2992,"la2":30.254,"lo1":-89.0895,"lo2":-89.0443,"dy":0.0025,"dx":0.0025,"nx":19,"ny":19,"refTime":"2026-05-17T03:00:00:Z","depth":0,"parameterNumber":3,"parameterNumberName":"V-component_of_WINDS"},"data":[0,0,0,3.1845,3.1847,3.196,3.196,3.2109,3.211,0,0,0,0,0,0,0,0,0,0,0,3.1815,3.1816,3.1845,3.1848,3.196,3.196,3.2108,3.211,0,0,0,0,0,0,0,0,0,0,0,3.1814,3.1816,3.1817,3.1848,3.196,3.196,3.2108,3.2021,0,0,0,0,0,0,0,0,0,0,3.1911,3.1887,3.1815,3.1817,3.1849,3.196,3.196,3.2017,3.2027,3.206,0,3.2091,0,3.2103,3.212,3.2121,0,0,0,3.1845,3.1879,3.1907,3.1817,3.185,3.1959,3.1908,3.2023,3.2033,3.2073,3.2093,3.2098,3.2105,3.2121,3.2122,3.2324,3.2325,0,0,3.1839,3.1837,3.1899,3.1914,3.1897,3.1905,3.1912,3.2029,3.205,3.2093,3.2101,3.2108,3.2122,3.2123,3.2323,3.2324,0,0,0,3.1823,3.1832,3.1857,3.1908,3.1928,3.1908,3.1916,3.2045,3.2053,3.2103,3.2109,3.2123,3.2125,3.2322,3.2323,3.2375,0,0,0,3.1819,3.1823,3.1854,3.1854,3.1926,3.1988,3.193,3.2045,3.2058,3.2109,3.2123,3.2127,3.2321,3.2323,3.2371,3.2399,0,0,0,3.1806,3.1821,3.1839,3.1854,3.1902,3.1986,3.2001,3.2048,3.2063,3.2121,3.2127,3.232,3.2322,3.2367,3.2393,3.2453,0,0,0,3.1792,3.1882,3.184,3.1943,3.1901,3.2017,3.2,3.2087,3.2143,3.2124,3.2321,3.2323,3.2366,3.239,3.2449,3.2502,3.2524,0,0,3.1904,3.1895,3.1956,3.1922,3.2045,3.2,3.2131,3.2184,3.2191,3.2279,3.2284,3.2372,3.2393,3.2452,3.2647,3.2665,0,0,0,3.1991,3.2035,3.2068,3.2122,3.2165,3.2205,3.2238,3.2258,3.2333,3.2236,3.2409,3.2422,3.2456,3.2482,3.2497,3.2527,3.2335,3.2335,3.2334,3.2146,3.2151,3.2253,3.2272,3.2325,3.2359,3.2402,3.2435,3.2423,3.2465,3.2491,3.2609,3.2639,3.265,3.2681,3.2519,3.2519,3.2519,3.252,3.2311,3.2374,3.2359,3.2452,3.2457,3.2535,3.2572,3.2562,3.2635,3.2589,3.262,3.2569,3.2669,3.2697,3.2524,3.2523,3.2522,3.2522,3.2522,3.2413,3.2444,3.2468,3.2548,3.2609,3.2625,3.2697,3.2699,3.2701,3.2731,3.276,3.2759,3.2759,3.2745,3.2745,3.2745,3.2746,3.2746,3.2746,3.251,3.2535,3.2596,3.2651,3.2686,3.2734,3.277,3.2805,3.2845,3.2841,3.2841,3.2826,3.2678,3.2641,3.2753,3.2752,3.2751,3.275,3.275,3.2676,3.2639,3.2733,3.2769,3.2834,3.2895,3.2897,3.2969,3.2998,3.3034,3.3014,3.2903,3.2894,3.2882,3.2852,3.3012,3.3012,3.3012,3.3012,3.2762,3.2758,3.2855,3.2913,3.297,3.2982,3.3088,3.3118,3.3143,3.3161,3.3139,3.3098,3.3086,3.3084,3.3068,3.3039,3.3243,3.3244,3.3244,3.2865,3.2867,3.2957,3.2982,3.3033,3.3078,3.3178,3.3245,3.3266,3.3253,3.3176,3.3167,3.3101,3.3079,3.3065,3.3039,3.2987,0,0]}]]